Location: Newark
(13.8117°N, 3.6025°W)
Time: 17:23:09
(UTC+00:00)

Vanguard 2 - Pass Details

Date: 02 September 2019
Orbit: 554 x 2937 km, 32.9° (Epoch: 23 September)

Event Time Altitude Azimuth Distance (km) Brightness Sun altitude
Rises 12:38:00 0° 323° (NW) 2,988 10.6 81.7°
Reaches altitude 10° 12:41:15 10° 350° (N) 2,326 10.1 81.1°
Maximum altitude 12:44:09 14° 22° (NNE) 2,296 10.1 80.6°
Drops below altitude 10° 12:47:39 10° 53° (NE) 2,945 10.5 79.9°
Sets 12:52:49 0° 76° (ENE) 4,462 11.3 78.8°
